Location: ??
(34.7707°N, 135.6540°E)
Time: 16:35:48
(UTC+00:00)

Meteor 1-13 Rocket - Pass Details

Date: 09 April 2020
Orbit: 830 x 912 km, 81.3° (Epoch: 05 June)

Event Time Altitude Azimuth Distance (km) Brightness Sun altitude
Exits shadow 18:33:24 41° 189° (S) 1,251 4.8 -23.8°
Maximum altitude 18:35:34 88° 277° (W) 872 4.1 -23.4°
Drops below altitude 10° 18:41:14 10° 8° (N) 2,488 7.1 -22.4°
Sets 18:43:38 0° 8° (N) 3,417 7.9 -21.9°
